Voltar ao catálogo

FENGYUN 1C DEB

AtivoSSO
NORAD 29894·DEBRIS·🇨🇳 China

Lançado May 10, 1999 de Taiyuan Satellite Launch Center

Loading…

Próximas Passagens (próximas 24 horas)

TLE

AtualizadoSource: Space-Track

Época: Sep 14, 2026, 20:00 UTC

1 29894U 99025GQ  26257.83375191  .00000230  00000-0  23230-3 0  9994
2 29894  99.4564 317.9721 0168201  36.6252  14.1451 13.81270794988882

Acompanhe FENGYUN 1C DEB em tempo real com AllMySat

Download on the App Store